Athens, GA

1:23 AM EST on February 26, 2017 (GMT -0500)
Athens / Epps

Weather History for KAHN - November, 2013

Change the Weather History Date:

Saturday, November 23, 2013

  Actual Average Record
Temperature  
Mean Temperature 55 °F 51 °F  
Max Temperature 68 °F 63 °F 78 °F (1982)
Min Temperature 42 °F 40 °F 20 °F (1970)
Degree Days  
Heating Degree Days 10 14  
Month to date heating degree days 270 240  
Since 1 July heating degree days 382 375  
Growing Degree Days 6 (Base 50)    
Moisture  
Dew Point 49 °F    
Average Humidity 66    
Maximum Humidity 100    
Minimum Humidity 32    
Precipitation  
Precipitation 0.06 in 0.14 in 1.73 in (1891)
Month to date precipitation 0.89 2.88  
Year to date precipitation 50.74 41.66  
Snow  
Snow 0.00 in 0.00 in 0.00 in (2001)
Month to date snowfall 0.0 0.0  
Since 1 July snowfall 0.0 0.0  
Since 1 September snowfall 0.0 0.0  
Snow Depth 0.00 in    
Sea Level Pressure  
Sea Level Pressure 30.15 in    
Wind  
Wind Speed 7 mph (WNW)    
Max Wind Speed 15 mph    
Max Gust Speed 22 mph    
Visibility 6 miles    
Events Rain    
T = Trace of Precipitation, MM = Missing Value Source: NWS Daily Summary

Daily Weather History Graph

Daily Weather History Graph

Search for Another Location

Airport or City:

Trip Planner

Search our weather history database for the weather conditions in past years. The results will help you decide how hot, cold, wet, or windy it might be!

Date:

Astronomy

Nov. 23, 2013 Rise Set
Actual Time 7:13 AM EST 5:25 PM EST
Civil Twilight 6:46 AM EST 5:52 PM EST
Nautical Twilight 6:15 AM EST 6:23 PM EST
Astronomical Twilight 5:45 AM EST 6:53 PM EST
Moon 10:47 PM EST (11/23) 11:34 AM EST (11/23)
Length of Visible Light 11h 06m
Length of Day
10h 12m
Waning Gibbous, 70% of the Moon is Illuminated
Nov 23
Waning Gibbous
Nov 25
Last Quarter
Dec 2
New
Dec 9
First Quarter
Dec 17
Full

Hourly Weather History & Observations

Time (EST) Temp. Windchill Dew Point Humidity Pressure Visibility Wind Dir Wind Speed Gust Speed Precip Events Conditions
12:01 AM 57.2 °F - 57.2 °F 100% 30.17 in 1.2 mi Calm Calm - 0.01 in Rain Light Rain
12:13 AM 57.2 °F - 57.2 °F 100% 30.17 in 1.5 mi WSW 3.5 mph - 0.04 in Rain Light Rain
12:37 AM 59.0 °F - 57.2 °F 94% 30.16 in 1.8 mi Calm Calm - 0.06 in Rain Light Rain
12:51 AM 59.0 °F - 57.9 °F 96% 30.15 in 1.5 mi WSW 3.5 mph - 0.07 in Rain Light Rain
1:07 AM 59.0 °F - 57.2 °F 94% 30.16 in 2.0 mi West 3.5 mph - 0.00 in Rain Light Rain
1:43 AM 59.0 °F - 57.2 °F 94% 30.15 in 2.5 mi Calm Calm - 0.00 in   Overcast
1:51 AM 59.0 °F - 57.9 °F 96% 30.14 in 2.5 mi Calm Calm - 0.00 in   Overcast
2:01 AM 59.0 °F - 57.2 °F 94% 30.15 in 3.0 mi Variable 3.5 mph - N/A   Overcast
2:51 AM 59.0 °F - 57.9 °F 96% 30.14 in 3.0 mi WNW 5.8 mph - N/A   Overcast
3:51 AM 57.9 °F - 57.0 °F 97% 30.13 in 3.0 mi Variable 3.5 mph - N/A   Partly Cloudy
4:06 AM 57.2 °F - 57.2 °F 100% 30.13 in 3.0 mi West 4.6 mph - N/A   Mostly Cloudy
4:51 AM 57.9 °F - 57.0 °F 97% 30.11 in 3.0 mi West 4.6 mph - N/A   Overcast
5:51 AM 57.0 °F - 55.9 °F 96% 30.11 in 3.0 mi WNW 5.8 mph - N/A   Overcast
6:51 AM 57.0 °F - 55.9 °F 96% 30.13 in 4.0 mi WNW 5.8 mph - N/A   Overcast
7:51 AM 57.0 °F - 55.9 °F 96% 30.14 in 4.0 mi WNW 10.4 mph - N/A   Overcast
8:51 AM 57.9 °F - 55.0 °F 90% 30.15 in 6.0 mi WNW 8.1 mph - N/A   Overcast
9:51 AM 57.9 °F - 54.0 °F 87% 30.16 in 9.0 mi NW 8.1 mph - N/A   Overcast
10:25 AM 60.8 °F - 53.6 °F 77% 30.17 in 10.0 mi WNW 8.1 mph - N/A   Mostly Cloudy
10:51 AM 62.1 °F - 55.0 °F 78% 30.16 in 10.0 mi NW 6.9 mph - N/A   Scattered Clouds
11:51 AM 64.9 °F - 54.0 °F 68% 30.14 in 10.0 mi WNW 4.6 mph - N/A   Scattered Clouds
12:51 PM 64.9 °F - 51.1 °F 61% 30.11 in 10.0 mi WNW 8.1 mph - N/A   Scattered Clouds
1:51 PM 63.0 °F - 48.9 °F 60% 30.09 in 10.0 mi NW 8.1 mph - N/A   Overcast
2:51 PM 63.0 °F - 48.0 °F 58% 30.08 in 9.0 mi NW 10.4 mph - N/A   Overcast
3:51 PM 60.1 °F - 46.0 °F 60% 30.10 in 10.0 mi NW 10.4 mph - N/A   Clear
4:51 PM 59.0 °F - 44.1 °F 58% 30.12 in 10.0 mi NW 10.4 mph - N/A   Clear
5:51 PM 57.0 °F - 41.0 °F 55% 30.13 in 10.0 mi NW 9.2 mph - N/A   Scattered Clouds
6:51 PM 55.0 °F - 34.0 °F 45% 30.15 in 10.0 mi NW 9.2 mph - N/A   Partly Cloudy
7:51 PM 52.0 °F - 30.0 °F 43% 30.18 in 10.0 mi NNW 10.4 mph 17.3 mph N/A   Partly Cloudy
8:51 PM 50.0 °F - 21.9 °F 33% 30.19 in 10.0 mi NNW 6.9 mph 16.1 mph N/A   Partly Cloudy
9:51 PM 46.9 °F - 25.0 °F 42% 30.20 in 10.0 mi NW 10.4 mph - N/A   Clear
10:51 PM 45.0 °F 40.6 °F 28.0 °F 52% 30.21 in 10.0 mi NW 8.1 mph - N/A   Clear
11:51 PM 43.0 °F 38.8 °F 28.9 °F 58% 30.21 in 10.0 mi NW 6.9 mph - N/A   Clear